Regional Weather Roundup
Issued by NWS

Home | Current Version | Previous Version | Graphics & Text | Print | Product List | Glossary On
Versions: 1 2 3 4 5 6 7 8 9 10 11 12 13 14 15 16 17 18 19 20 21 22 23 24 25 26 27 28 29 30 31 32 33 34 35 36 37 38 39 40 41 42 43 44 45 46 47 48 49 50
000
ASUS43 KLMK 280302
RWRKY
KENTUCKY REGIONAL WEATHER ROUNDUP
NATIONAL WEATHER SERVICE LOUISVILLE KY
1100 PM EDT THU AUG 27 2015

NOTE "FAIR" INDICATES FEW OR NO CLOUDS BELOW 12,000 FEET
WITH NO SIGNIFICANT WEATHER AND/OR OBSTRUCTIONS TO VISIBILITY.

KYZ001>023-026-027-061>063-070>075-280400-
WESTERN AND SOUTH CENTRAL KENTUCKY

CITY           SKY/WX    TMP DP  RH WIND       PRES   REMARKS
PADUCAH        CLEAR     63  59  87 CALM      30.08S
HENDERSON      CLEAR     63  55  77 CALM      30.10S
OWENSBORO      CLEAR     65  60  83 CALM      30.12R
HOPKINSVILLE   CLEAR     67  58  72 E7        30.10S
BOWLING GREEN  PTCLDY    65  57  75 E6        30.12S
GLASGOW        CLEAR     63  56  78 NE3       30.13S
$$

KYZ024-025-028>034-038-045-046-053-280400-
NORTH CENTRAL KENTUCKY

CITY           SKY/WX    TMP DP  RH WIND       PRES   REMARKS
LOUISVILLE/SDF PTCLDY    69  57  65 E7        30.12S
LOUISVILLE/LOU CLEAR     70  56  61 E5        30.14S
FORT KNOX      CLEAR     65  58  76 E5        30.12S
$$

KYZ035>037-039>044-047>052-055>060-089>105-280400-
NORTHEAST KENTUCKY

CITY           SKY/WX    TMP DP  RH WIND       PRES   REMARKS
LEXINGTON      CLEAR     63  55  75 NE6       30.17R
COVINGTON      CLEAR     61  56  83 CALM      30.16S
FRANKFORT      CLEAR     63  56  78 E3        30.15S
$$

KYZ054-064>069-076>088-106>120-280400-
SOUTHEAST KENTUCKY

CITY           SKY/WX    TMP DP  RH WIND       PRES   REMARKS
JACKSON        CLEAR     62  55  77 CALM      30.18S
LONDON         CLEAR     64  54  69 N5        30.17R
SOMERSET       NOT AVBL
MIDDLESBORO    PTCLDY    64  61  88 CALM      30.16R
MONTICELLO     CLEAR     59  58  96 CALM      30.18R
$$



USA.gov is the U.S. government's official web portal to all federal, state and local government web resources and services.